Weather History for Waterloo, IA

Change the Weather History Date:

Sunday, March 3, 2013

  Actual Average Record
Temperature  
Mean Temperature 15 °F 30 °F  
Max Temperature 28 °F 39 °F 70 °F (1983)
Min Temperature 2 °F 21 °F -19 °F (2014)
Degree Days  
Heating Degree Days 50 35  
Month to date heating degree days 149 106  
Since 1 July heating degree days 5359 5525  
Cooling Degree Days 0 0  
Month to date cooling degree days 0 0  
Year to date cooling degree days 0 0  
Moisture  
Dew Point 9 °F    
Average Humidity 71    
Maximum Humidity 91    
Minimum Humidity 50    
Precipitation  
Precipitation 0.00 in 0.06 in 1.30 in (1924)
Month to date precipitation T 0.16  
Year to date precipitation 3.08 1.98  
Snow  
Snow 0.00 in 0.20 in 4.10 in (1948)
Month to date snowfall T 0.6  
Since 1 July snowfall 37.1 29.5  
Snow Depth 6.00 in    
Sea Level Pressure  
Sea Level Pressure 30.12 in    
Wind  
Wind Speed 7 mph (SE)    
Max Wind Speed 15 mph    
Max Gust Speed 20 mph    
Visibility 9 miles    
Events      
T = Trace of Precipitation, MM = Missing Value Source: NWS Daily Summary

Daily Weather History Graph

Daily Weather History Graph

Search for Another Location

Airport:

Trip Planner

Search our weather history database for the weather conditions in past years. The results will help you decide how hot, cold, wet, or windy it might be!

Date:

Astronomy

Mar. 03, 2013 Rise Set
Actual Time 6:41 AM CST 6:02 PM CST
Civil Twilight 6:13 AM CST 6:30 PM CST
Nautical Twilight 5:40 AM CST 7:02 PM CST
Astronomical Twilight 5:08 AM CST 7:35 PM CST
Moon No Moon Rise 9:48 AM CST (3/3)
Length of Visible Light 12h 17m
Length of Day
11h 20m
Waning Gibbous, 63% of the Moon is Illuminated
Mar 3
Waning Gibbous
Mar 4
Last Quarter
Mar 11
New
Mar 19
First Quarter
Mar 27
Full

Hourly Weather History & Observations

Time (CST) Temp. Windchill Dew Point Humidity Pressure Visibility Wind Dir Wind Speed Gust Speed Precip Events Conditions
12:54 AM 10.0 °F - 7.0 °F 87% 30.22 in 8.0 mi Calm Calm - N/A   Overcast
1:54 AM 9.0 °F - 6.1 °F 88% 30.20 in 7.0 mi Calm Calm - N/A   Clear
2:54 AM 3.0 °F - -0.0 °F 87% 30.18 in 7.0 mi Calm Calm - N/A   Scattered Clouds
3:54 AM 3.0 °F - -0.0 °F 87% 30.17 in 8.0 mi Calm Calm - N/A   Scattered Clouds
4:44 AM 6.8 °F - 3.2 °F 85% 30.12 in 6.0 mi Calm Calm - N/A   Mostly Cloudy
4:54 AM 5.0 °F - 1.9 °F 87% 30.18 in 6.0 mi Calm Calm - N/A   Mostly Cloudy
5:50 AM 5.0 °F - 1.4 °F 85% 30.13 in 7.0 mi Calm Calm - N/A   Mostly Cloudy
5:54 AM 5.0 °F - 1.9 °F 87% 30.18 in 7.0 mi Calm Calm - N/A   Mostly Cloudy
6:06 AM 6.8 °F -0.1 °F 3.2 °F 85% 30.12 in 8.0 mi South 3.5 mph - N/A   Overcast
6:54 AM 8.1 °F - 5.0 °F 87% 30.18 in 7.0 mi Calm Calm - N/A   Overcast
7:54 AM 12.0 °F - 9.0 °F 88% 30.18 in 5.0 mi Calm Calm - N/A   Overcast
8:54 AM 15.1 °F 3.3 °F 10.0 °F 80% 30.17 in 9.0 mi ENE 9.2 mph - N/A   Overcast
9:54 AM 19.0 °F 11.1 °F 12.9 °F 77% 30.17 in 10.0 mi ESE 5.8 mph - N/A   Overcast
10:54 AM 23.0 °F 13.1 °F 15.1 °F 72% 30.16 in 10.0 mi SSE 9.2 mph - N/A   Overcast
11:54 AM 25.0 °F 14.8 °F 14.0 °F 63% 30.14 in 10.0 mi SSE 10.4 mph - N/A   Clear
12:54 PM 27.0 °F 19.5 °F 12.9 °F 56% 30.11 in 10.0 mi SSE 6.9 mph - N/A   Overcast
1:54 PM 27.0 °F 18.0 °F 15.1 °F 61% 30.09 in 10.0 mi SE 9.2 mph - N/A   Clear
2:54 PM 27.0 °F 16.7 °F 16.0 °F 63% 30.07 in 10.0 mi East 11.5 mph - N/A   Clear
3:54 PM 27.0 °F 15.2 °F 14.0 °F 58% 30.06 in 10.0 mi ESE 15.0 mph - N/A   Clear
4:54 PM 27.0 °F 16.7 °F 10.9 °F 51% 30.05 in 10.0 mi ESE 11.5 mph - N/A   Clear
5:54 PM 26.1 °F 15.6 °F 12.0 °F 55% 30.05 in 10.0 mi ESE 11.5 mph - N/A   Clear
6:54 PM 25.0 °F 13.6 °F 10.9 °F 55% 30.04 in 10.0 mi ESE 12.7 mph - N/A   Clear
7:54 PM 24.1 °F 12.0 °F 10.9 °F 57% 30.04 in 10.0 mi ESE 13.8 mph - N/A   Clear
8:54 PM 24.1 °F 12.0 °F 12.9 °F 62% 30.04 in 10.0 mi ESE 13.8 mph - N/A   Scattered Clouds
9:54 PM 25.0 °F 13.6 °F 14.0 °F 63% 30.02 in 10.0 mi SE 12.7 mph - N/A   Overcast
10:54 PM 25.0 °F 14.2 °F 14.0 °F 63% 30.03 in 10.0 mi SE 11.5 mph - N/A   Overcast
11:54 PM 25.0 °F 15.5 °F 15.1 °F 66% 30.05 in 10.0 mi SE 9.2 mph - N/A   Overcast